Regional Weather Roundup
Issued by NWS Bismarck, ND

Home | Current Version | Previous Version | Text Only | Print | Product List | Glossary On
Versions: 1 2 3 4 5 6 7 8 9 10 11 12 13 14 15 16 17 18 19 20 21 22 23 24 25 26 27 28 29 30 31 32 33 34 35 36 37 38 39 40 41 42 43 44 45 46 47 48 49 50
763
ASUS43 KBIS 231410
RWRBIS

NWR BROADCAST TEXT
NATIONAL WEATHER SERVICE BISMARCK ND
900 AM CDT THU MAR 23 2017

NOTE: "FAIR" INDICATES FEW OR NO CLOUDS BELOW 12,000 FEET WITH NO
SIGNIFICANT WEATHER AND/OR OBSTRUCTIONS TO VISIBILITY.


CITY           SKY/WX    TMP DP  RH WIND       PRES   REMARKS
WILLISTON      FAIR      34  32  92 CALM      29.74S FOG
MINOT          FAIR      36  30  79 S6        29.73F
MINOT AFB      FAIR      33  30  90 S5        29.72F
BISMARCK       LGT RAIN  34  32  92 N8        29.73F
DICKINSON      CLOUDY    38  33  82 W3        29.70R
GARRISON         N/A     33  29  85 CALM      29.73F
HETTINGER ARPT CLOUDY    39  37  92 E6        29.71S
JAMESTOWN      LGT RAIN  33  30  88 S9        29.81R FOG
HAZEN          CLOUDY    34  30  86 NE5       29.74F
MANDAN         LGT RAIN  32  32 100 NE6       29.72F
RUGBY            N/A     30  30 100 S5        29.77F
STANLEY        FAIR      32  32 100 CALM      29.75S
TIOGA          FAIR      30  30 100 CALM      29.75S
$$

CITY           SKY/WX    TMP DP  RH WIND       PRES   REMARKS
GRAND FORKS    CLOUDY    35  23  61 S14       29.86F
GRAND FORKS AF FAIR      34  26  73 S12       29.86S
DEVILS LAKE    PTSUNNY   32  27  81 S5        29.80F
FARGO          FAIR      38  26  62 S23G32    29.88F
GRAFTON        FAIR      32  28  86 S13       29.88S
GWINNER        SUNNY     36  30  80 MISG      29.85R
ROLLA          FAIR      27  27 100 S13       29.77S WCI  16
$$

CITY           SKY/WX    TMP DP  RH WIND       PRES   REMARKS
ABERDEEN       FAIR      39  27  62 S17G25    29.82R
MOBRIDGE       FAIR      43  30  60 SE8       29.73R
BUFFALO          N/A     44  39  82 CALM      29.66R
RAPID CITY     FAIR      47  40  76 N16       29.65F
GLASGOW        FAIR      33  31  92 NW10      29.75R
SIDNEY         FAIR      36  34  92 CALM      29.75R
WOLF POINT     CLOUDY    34  32  92 CALM      29.75R
GLENDIVE       CLOUDY    41  37  86 S5        29.75R
MILES CITY     RAIN      49  39  68 NW12G21   29.75R
BAKER          LGT RAIN  44  36  73 SE8       29.75R
$$

CITY           SKY/WX    TMP DP  RH WIND       PRES   REMARKS
BILLINGS       MOCLDY    43  39  86 NW10      29.77S
GREAT FALLS    FAIR      33  27  78 SW12      29.84R
REGINA         CLOUDY    30  28  93 N12G17    29.77S
ESTEVAN        PTSUNNY   28  27  93 W3        29.74S
$$





USA.gov is the U.S. government's official web portal to all federal, state and local government web resources and services.